This is the latest recevied weather packets stored in our database for station/object S51UL-6. If no packets are shown the sender has not sent any weather packets the latest 1 day(s).
| Time | Temp. | Humidity | Pressure | Rain* | Wind** | Luminosity | Snow |
|---|---|---|---|---|---|---|---|
| 1778060896 | 21.11° C | 55% | 1011.4 hPa | 0 mm | - | - | - |
| 1778060596 | 21.11° C | 55% | 1011.3 hPa | 0 mm | - | - | - |
| 1778060297 | 21.11° C | 56% | 1011 hPa | 0 mm | - | - | - |
| 1778059696 | 20.56° C | 54% | 1011.2 hPa | 0 mm | - | - | - |
| 1778059097 | 21.11° C | 55% | 1011.2 hPa | 0 mm | - | - | - |
| 1778058799 | 21.11° C | 54% | 1011.1 hPa | 0 mm | - | - | - |
| 1778058497 | 21.67° C | 53% | 1011.1 hPa | 0 mm | - | - | - |
| 1778058197 | 21.67° C | 52% | 1011 hPa | 0 mm | - | - | - |
| 1778057897 | 22.22° C | 52% | 1011.2 hPa | 0 mm | - | - | - |
| 1778057598 | 22.78° C | 51% | 1011.1 hPa | 0 mm | - | - | - |
| 1778057297 | 23.33° C | 51% | 1011.1 hPa | 0 mm | - | - | - |
| 1778056698 | 22.22° C | 53% | 1011.1 hPa | 0 mm | - | - | - |
| 1778056397 | 21.67° C | 53% | 1011 hPa | 0 mm | - | - | - |
| 1778056098 | 21.67° C | 53% | 1010.8 hPa | 0 mm | - | - | - |
| 1778055797 | 21.11° C | 55% | 1010.8 hPa | 0 mm | - | - | - |
| 1778055497 | 20.56° C | 54% | 1010.9 hPa | 0 mm | - | - | - |
| 1778054597 | 21.11° C | 53% | 1010.7 hPa | 0 mm | - | - | - |
| 1778054297 | 21.67° C | 57% | 1010.5 hPa | 0 mm | - | - | - |
| 1778053999 | 21.67° C | 58% | 1010.7 hPa | 0 mm | - | - | - |
| 1778053698 | 21.11° C | 58% | 1010.6 hPa | 0 mm | - | - | - |
| 1778053097 | 20.56° C | 64% | 1010.6 hPa | 0 mm | - | - | - |
| 1778052799 | 20° C | 64% | 1010.6 hPa | 0 mm | - | - | - |
| 1778052498 | 19.44° C | 66% | 1010.5 hPa | 0 mm | - | - | - |
| 1778051598 | 18.33° C | 69% | 1010.5 hPa | 0 mm | - | - | - |
| 1778051298 | 18.33° C | 72% | 1010.5 hPa | 0 mm | - | - | - |
* Rain latest hour (hover to see other rain measurements)
** Current wind speed in m/s (hover to see current wind gust speed)